This demonstration page uses our WeatherBlox Daily Observations layout. Learn more.

Hourly Observations for May 12, 2020

Temp ( °F °C ) Dew Point ( °F °C ) Humidity (%) Winds ( mph kmh ) Pressure ( in mb ) Visibility ( mi km ) Precip ( " mm )
12:15 am 00:15 Cloudy 45 7 34 1 66 66 WNW 12 19 30.13 1020 10 16.0934 0 0
12:35 am 00:35 Cloudy 45 7 34 1 66 66 WNW 12 19 30.13 1020 10 16.0934 0 0
12:55 am 00:55 Cloudy 45 7 34 1 66 66 WNW 10 17 30.13 1020 10 16.0934 0 0
1:15 am 01:15 Cloudy 45 7 34 1 66 66 WNW 15 24 30.13 1020 10 16.0934 0 0
1:35 am 01:35 Cloudy 45 7 34 1 66 66 NW 9 15 30.13 1020 10 16.0934 0 0
1:55 am 01:55 Mostly Cloudy 45 7 32 0 61 61 NW 12 19 30.13 1020 10 16.0934 0 0
2:15 am 02:15 Mostly Cloudy 45 7 32 0 61 61 WNW 8 13 30.13 1020 10 16.0934 0 0
2:35 am 02:35 Cloudy 43 6 34 1 71 71 W 7 11 30.14 1021 10 16.0934 0 0
2:55 am 02:55 Cloudy 43 6 34 1 71 71 WNW 8 13 30.13 1020 10 16.0934 0 0
3:15 am 03:15 Mostly Cloudy 43 6 34 1 71 71 W 8 13 30.12 1020 10 16.0934 0 0
3:35 am 03:35 Partly Cloudy 43 6 32 0 66 66 WNW 8 13 30.13 1020 10 16.0934 0 0
3:55 am 03:55 Clear 41 5 32 0 70 70 NW 3 6 30.13 1020 10 16.0934 0 0
4:15 am 04:15 Clear 41 5 32 0 70 70 NW 5 7 30.14 1021 10 16.0934 0 0
4:35 am 04:35 Clear 39 4 32 0 75 75 WNW 7 11 30.15 1021 10 16.0934 0 0
4:55 am 04:55 Clear 39 4 32 0 75 75 WNW 6 9 30.16 1021 10 16.0934 0 0
5:15 am 05:15 Mostly Cloudy 41 5 32 0 70 70 WNW 10 17 30.16 1021 10 16.0934 0 0
5:35 am 05:35 Cloudy 43 6 34 1 71 71 WNW 9 15 30.16 1021 10 16.0934 0 0
5:55 am 05:55 Cloudy 43 6 34 1 71 71 WNW 13 20 30.17 1022 10 16.0934 0 0
6:15 am 06:15 Cloudy 43 6 34 1 71 71 WNW 9 15 30.18 1022 10 16.0934 0 0
6:35 am 06:35 Cloudy 43 6 34 1 71 71 WNW 8 13 30.18 1022 10 16.0934 0 0
6:55 am 06:55 Cloudy 43 6 34 1 71 71 WNW 7 11 30.19 1022 10 16.0934 0 0
7:15 am 07:15 Cloudy 43 6 34 1 71 71 WNW 5 7 30.19 1022 10 16.0934 0 0
7:35 am 07:35 Cloudy 45 7 34 1 66 66 WNW 7 11 30.2 1023 10 16.0934 0 0
7:55 am 07:55 Cloudy 46 8 34 1 62 62 WNW 8 13 30.2 1023 10 16.0934 0 0
8:15 am 08:15 Cloudy 46 8 34 1 62 62 NW 12 19 30.21 1023 10 16.0934 0 0
8:35 am 08:35 Cloudy 46 8 34 1 62 62 WNW 14 22 30.21 1023 10 16.0934 0 0
8:55 am 08:55 Mostly Cloudy 50 10 36 2 58 58 NW 12 19 30.21 1023 10 16.0934 0 0
9:15 am 09:15 Partly Cloudy 48 9 34 1 58 58 NW 15 24 30.21 1023 10 16.0934 0 0
9:35 am 09:35 Partly Cloudy 50 10 34 1 54 54 WNW 15 24 30.21 1023 10 16.0934 0 0
9:55 am 09:55 Mostly Cloudy 52 11 36 2 54 54 WNW 10 17 30.2 1023 10 16.0934 0 0
10:15 am 10:15 Cloudy 52 11 34 1 50 50 WNW 14 22 30.2 1023 10 16.0934 0 0
10:35 am 10:35 Cloudy 52 11 34 1 50 50 WNW 13 20 30.2 1023 10 16.0934 0 0
10:55 am 10:55 Cloudy 50 10 34 1 54 54 WNW 14 22 30.21 1023 10 16.0934 0 0
11:15 am 11:15 Cloudy 52 11 34 1 50 50 WNW 13 20 30.2 1023 10 16.0934 0 0
11:35 am 11:35 Mostly Cloudy 54 12 34 1 47 47 NW 15 24 30.2 1023 10 16.0934 0 0
11:55 am 11:55 Mostly Cloudy 54 12 32 0 44 44 WNW 17 28 30.2 1023 10 16.0934 0 0
12:15 pm 12:15 Cloudy 54 12 34 1 47 47 NW 14 22 30.19 1022 10 16.0934 0 0
12:35 pm 12:35 Mostly Cloudy 54 12 34 1 47 47 W 15 24 30.18 1022 10 16.0934 0 0
12:55 pm 12:55 Mostly Cloudy 54 12 34 1 47 47 WNW 17 28 30.18 1022 10 16.0934 0 0
1:15 pm 13:15 Partly Cloudy 55 13 34 1 44 44 WNW 15 24 30.18 1022 10 16.0934 0 0
1:35 pm 13:35 Partly Cloudy 55 13 32 0 41 41 NW 18 30 30.16 1021 10 16.0934 0 0
1:55 pm 13:55 Partly Cloudy 57 14 32 0 39 39 NNW 16 26 30.15 1021 10 16.0934 0 0
2:15 pm 14:15 Partly Cloudy 55 13 32 0 41 41 W 15 24 30.15 1021 10 16.0934 0 0
2:35 pm 14:35 Partly Cloudy 59 15 32 0 36 36 WNW 18 30 30.14 1021 10 16.0934 0 0
2:55 pm 14:55 Partly Cloudy 59 15 32 0 36 36 WNW 18 30 30.15 1021 10 16.0934 0 0
3:15 pm 15:15 Partly Cloudy 59 15 32 0 36 36 NW 16 26 30.14 1021 10 16.0934 0 0
3:35 pm 15:35 Partly Cloudy 61 16 32 0 34 34 W 18 30 30.13 1020 10 16.0934 0 0
3:55 pm 15:55 Partly Cloudy 61 16 32 0 34 34 NW 17 28 30.13 1020 10 16.0934 0 0
4:15 pm 16:15 Partly Cloudy 61 16 32 0 34 34 W 16 26 30.12 1020 10 16.0934 0 0
4:35 pm 16:35 Sunny 59 15 32 0 36 36 NW 10 17 30.13 1020 10 16.0934 0 0
4:55 pm 16:55 Partly Cloudy 59 15 32 0 36 36 W 16 26 30.13 1020 10 16.0934 0 0
5:15 pm 17:15 Partly Cloudy 61 16 32 0 34 34 NW 17 28 30.13 1020 10 16.0934 0 0
5:35 pm 17:35 Sunny 61 16 32 0 34 34 WNW 12 19 30.13 1020 10 16.0934 0 0
5:55 pm 17:55 Partly Cloudy 61 16 32 0 34 34 WNW 16 26 30.14 1021 10 16.0934 0 0
6:15 pm 18:15 Partly Cloudy 59 15 30 -1 34 34 NW 13 20 30.15 1021 10 16.0934 0 0
6:35 pm 18:35 Mostly Cloudy 59 15 32 0 36 36 NW 13 20 30.15 1021 10 16.0934 0 0
6:55 pm 18:55 Cloudy 59 15 30 -1 34 34 NW 17 28 30.16 1021 10 16.0934 0 0
7:15 pm 19:15 Mostly Cloudy 59 15 30 -1 34 34 NW 14 22 30.16 1021 10 16.0934 0 0
7:35 pm 19:35 Cloudy 57 14 30 -1 36 36 NW 12 19 30.17 1022 10 16.0934 0 0
7:55 pm 19:55 Mostly Cloudy 55 13 30 -1 38 38 NW 10 17 30.18 1022 10 16.0934 0 0
8:15 pm 20:15 Partly Cloudy 54 12 30 -1 41 41 NW 10 17 30.19 1022 10 16.0934 0 0
8:35 pm 20:35 Partly Cloudy 54 12 30 -1 41 41 NW 10 17 30.19 1022 10 16.0934 0 0
8:55 pm 20:55 Clear 52 11 30 -1 44 44 NW 9 15 30.21 1023 10 16.0934 0 0
9:15 pm 21:15 Clear 52 11 30 -1 44 44 NW 8 13 30.21 1023 10 16.0934 0 0
9:35 pm 21:35 Clear 52 11 30 -1 44 44 WNW 10 17 30.21 1023 10 16.0934 0 0
9:55 pm 21:55 Clear 52 11 30 -1 44 44 WNW 8 13 30.22 1024 10 16.0934 0 0
10:15 pm 22:15 Clear 50 10 30 -1 47 47 undefined N/A 30.24 1024 10 16.0934 0 0
10:35 pm 22:35 Clear 50 10 32 0 50 50 undefined N/A 30.24 1024 10 16.0934 0 0
10:55 pm 22:55 Clear 50 10 30 -1 47 47 undefined N/A 30.25 1024 10 16.0934 0 0
11:15 pm 23:15 Clear 48 9 32 0 54 54 undefined N/A 30.25 1024 10 16.0934 0 0
11:35 pm 23:35 Clear 48 9 30 -1 50 50 undefined N/A 30.25 1024 10 16.0934 0 0
11:55 pm 23:55 Clear 45 7 32 0 61 61 undefined N/A 30.25 1024 10 16.0934 0 0

Powered by AerisWeather